[[{"header":{"parameterUnit":"m.s-1","parameterCategory":2,"la1":30.2991,"la2":30.254,"lo1":-89.0895,"lo2":-89.0444,"dy":0.0017,"dx":0.0017,"nx":28,"ny":28,"refTime":"2024-06-03T21:00:00:Z","depth":"0","parameterNumber":2,"parameterNumberName":"U-component_of_CURRENTS"},"data":[0,0,0,0,0,0,0,0,0,0,0,0,0,0,0,0,0,0,0,0,0,0,0,0,0,0,0,0,0,0,0,0,0,0,0,0,0,0,0,0,0,0,0,0,0,0,0,0,0,0,0,0,0,0,0,0,0,0,0.2567,0.2567,0,0.2557,0.2557,0.2557,0.2533,0.2533,0.2533,0.2532,0.2522,0.2522,0.2522,0,0,0,0,0,0,0,0,0,0,0,0,0,0.259,0.2589,0.2567,0.2567,0.2567,0.2557,0.2557,0.2557,0.2533,0.2533,0.2533,0.2532,0.2522,0.2522,0.2522,0,0,0,0,0,0,0,0,0,0,0,0,0,0.2578,0.2589,0.2566,0.2555,0.2554,0.2557,0.2557,0.2557,0.2533,0.2533,0.2533,0.2532,0.2522,0.2522,0.2522,0.2532,0,0,0.2522,0.2522,0,0,0,0,0,0,0,0,0.2579,0.2577,0.2557,0.2556,0.2555,0.2548,0.2562,0.2549,0.2534,0.2539,0.2532,0.2532,0.2532,0.2532,0.2528,0.2531,0.2531,0.2522,0.2522,0.2522,0.2522,0,0,0,0,0,0,0,0.2579,0.2577,0.2561,0.2557,0.2556,0.256,0.2557,0.2559,0.2537,0.2539,0.2538,0.254,0.2532,0.2528,0.2528,0.2531,0.2522,0.2522,0.2522,0.2522,0.2584,0.2585,0,0,0,0,0,0,0.2584,0.2578,0.2561,0.2561,0.2568,0.256,0.2557,0.2549,0.2537,0.2535,0.254,0.2539,0.2528,0.2528,0.2527,0.2569,0.2522,0.2522,0.2522,0.2582,0.2584,0.2586,0,0,0,0,0,0,0.2584,0.2582,0.2561,0.2572,0.2569,0.256,0.2551,0.2549,0.2549,0.2539,0.2536,0.2543,0.2528,0.2527,0.2541,0.2567,0.2522,0.2522,0.258,0.2583,0.2585,0.2632,0,0,0,0,0,0,0.2585,0.2582,0.258,0.2571,0.2569,0.2567,0.2552,0.2549,0.2552,0.255,0.2541,0.2539,0.2527,0.2541,0.2541,0.2566,0.2523,0.2578,0.2581,0.2584,0.2629,0.2636,0.2642,0,0,0,0,0,0.2585,0.2583,0.258,0.2578,0.2566,0.2568,0.2567,0.2558,0.2553,0.2555,0.2556,0.2539,0.256,0.2542,0.2542,0.2568,0.2577,0.258,0.2584,0.2625,0.2634,0.2642,0,0,0,0,0,0,0.2592,0.2581,0.2577,0.2571,0.2573,0.2564,0.2566,0.2564,0.2565,0.2565,0.2554,0.2553,0.2577,0.2569,0.2549,0.2597,0.2569,0.2572,0.26,0.2609,0.2615,0.2611,0.2523,0,0,0,0,0,0.2594,0.2587,0.2584,0.258,0.2581,0.2577,0.2578,0.2574,0.2574,0.2573,0.2569,0.2574,0.2592,0.2596,0.2603,0.2624,0.2632,0.2644,0.2651,0.2656,0.2655,0.2711,0.2722,0.2598,0.2598,0.2597,0,0,0.2594,0.2589,0.2584,0.2581,0.258,0.2588,0.2575,0.2579,0.2591,0.2574,0.2586,0.2595,0.2604,0.2631,0.2641,0.2625,0.2696,0.2661,0.2666,0.2661,0.2716,0.2728,0.2739,0.26,0.26,0.2599,0,0,0.2597,0.2589,0.2588,0.2593,0.2598,0.2599,0.2604,0.2602,0.2604,0.2624,0.2623,0.2648,0.2661,0.2676,0.2687,0.2737,0.2731,0.2743,0.2771,0.2825,0.2836,0.2845,0.2865,0.2876,0.2745,0.2745,0.2745,0,0.2601,0.2591,0.259,0.2599,0.2602,0.2607,0.2613,0.2625,0.263,0.2645,0.2635,0.2686,0.2686,0.2737,0.2751,0.2752,0.2771,0.2736,0.2834,0.2844,0.2852,0.2871,0.2882,0.2747,0.2747,0.2747,0.2747,0,0.2602,0.2601,0.2603,0.2612,0.2624,0.2625,0.2645,0.2662,0.2671,0.2688,0.2735,0.2745,0.2777,0.2788,0.2781,0.2849,0.2837,0.2838,0.2811,0.2868,0.2883,0.2894,0.2751,0.275,0.275,0.2749,0,0,0.2584,0.2597,0.2598,0.2604,0.2624,0.2633,0.2668,0.2698,0.2732,0.2754,0.2801,0.2835,0.2847,0.286,0.2865,0.2904,0.2976,0.2895,0.2897,0.2909,0.308,0.3008,0.3013,0.3,0.3002,0.3004,0.3063,0,0.2578,0.2588,0.2599,0.2617,0.2622,0.2648,0.2683,0.2724,0.2759,0.2811,0.2848,0.2894,0.2875,0.2898,0.2938,0.2972,0.3008,0.2958,0.3027,0.3028,0.2954,0.3024,0.288,0.2916,0.3074,0.3076,0.3077,0,0.2564,0.2575,0.2582,0.2616,0.2623,0.2642,0.2699,0.2733,0.2819,0.2853,0.2913,0.2947,0.3011,0.2988,0.3074,0.3046,0.3064,0.3082,0.3086,0.3008,0.2977,0.2887,0.293,0.2873,0.3093,0.3092,0.3091,0,0.2534,0.256,0.2561,0.257,0.2617,0.2634,0.2665,0.2743,0.2779,0.2883,0.2929,0.3013,0.3055,0.311,0.3142,0.3122,0.3232,0.3212,0.3161,0.3155,0.3037,0.3017,0.3025,0.3276,0.3276,0.3276,0.3276,0,0.2508,0.251,0.2547,0.2547,0.257,0.2617,0.2657,0.2711,0.2796,0.2856,0.2942,0.3003,0.3091,0.316,0.3181,0.3205,0.3269,0.3175,0.3177,0.3048,0.3029,0.2976,0.2947,0.3278,0.3278,0.3277,0.3277,0,0.2463,0.2483,0.2489,0.2534,0.2548,0.2566,0.2627,0.2664,0.2757,0.2839,0.2876,0.301,0.3103,0.3171,0.3266,0.324,0.3175,0.3269,0.3093,0.3071,0.2936,0.2915,0.2743,0.267,0.3216,0.3215,0.3214,0,0.2436,0.2433,0.2464,0.2468,0.2479,0.2514,0.2538,0.2628,0.2676,0.2837,0.2875,0.3002,0.3075,0.3179,0.3188,0.3219,0.3128,0.3079,0.3008,0.2918,0.2898,0.2734,0.2675,0.2873,0.2869,0.2866,0.2863,0,0.2388,0.2396,0.2403,0.2408,0.2421,0.244,0.2487,0.2519,0.2643,0.271,0.2821,0.2896,0.3018,0.2998,0.3041,0.3038,0.29,0.3014,0.2982,0.2679,0.244,0.2374,0.283,0.2836,0.2839,0.2841,0.2842,0.2843,0.2348,0.2337,0.2343,0.2337,0.235,0.2353,0.2337,0.2408,0.2456,0.2543,0.2695,0.2751,0.2819,0.2861,0.2843,0.2729,0.2712,0.2627,0.2625,0.2479,0.2348,0.2725,0.2695,0.2697,0.2698,0.27,0.2701,0,0.2289,0.2277,0.2271,0.225,0.2219,0.2259,0.2285,0.2258,0.2266,0.2399,0.2467,0.2522,0.2493,0.2534,0.2473,0.2366,0.2228,0.2297,0.2062,0.2041,0.2445,0.2373,0.2196,0.2196,0.2196,0.2196,0.2197,0.2197,0.226,0.222,0.2204,0.212,0.21,0.2031,0.2019,0.2006,0.2064,0.2087,0.2122,0.2199,0.2294,0.2247,0.2141,0.2094,0.1938,0.1778,0.1828,0.2161,0.2191,0.2221,0.2149,0.1928,0.1927,0.1296,0.1291,0.1288]},{"header":{"parameterUnit":"m.s-1","parameterCategory":2,"la1":30.2991,"la2":30.254,"lo1":-89.0895,"lo2":-89.0444,"dy":0.0017,"dx":0.0017,"nx":28,"ny":28,"refTime":"2024-06-03T21:00:00:Z","depth":"0","parameterNumber":3,"parameterNumberName":"V-component_of_CURRENTS"},"data":[0,0,0,0,0,0,0,0,0,0,0,0,0,0,0,0,0,0,0,0,0,0,0,0,0,0,0,0,0,0,0,0,0,0,0,0,0,0,0,0,0,0,0,0,0,0,0,0,0,0,0,0,0,0,0,0,0,0,0.0369,0.0369,0,0.0338,0.0338,0.0337,0.0315,0.0315,0.0315,0.0314,0.0275,0.0275,0.0274,0,0,0,0,0,0,0,0,0,0,0,0,0,0.0368,0.0368,0.0369,0.0369,0.0369,0.0338,0.0338,0.0337,0.0315,0.0315,0.0314,0.0314,0.0276,0.0275,0.0274,0,0,0,0,0,0,0,0,0,0,0,0,0,0.0355,0.0368,0.0369,0.0354,0.0353,0.0338,0.0338,0.0337,0.0315,0.0315,0.0314,0.0314,0.0276,0.0275,0.0273,0.0269,0,0,0.0269,0.0269,0,0,0,0,0,0,0,0,0.0356,0.0355,0.0357,0.0355,0.0354,0.0331,0.0323,0.0314,0.0315,0.0329,0.0314,0.0314,0.0294,0.0291,0.0285,0.0267,0.0265,0.0269,0.0268,0.0268,0.0267,0,0,0,0,0,0,0,0.0357,0.0356,0.0356,0.0357,0.0355,0.0335,0.0333,0.0321,0.0312,0.0327,0.0326,0.0323,0.0293,0.0286,0.0284,0.0265,0.0269,0.0268,0.0267,0.0267,0.0249,0.0249,0,0,0,0,0,0,0.0365,0.0358,0.0357,0.0356,0.0355,0.0335,0.0333,0.0338,0.0312,0.0308,0.0324,0.0322,0.0289,0.0285,0.0282,0.0293,0.0268,0.0266,0.0266,0.0249,0.0249,0.0249,0,0,0,0,0,0,0.0365,0.0365,0.0359,0.0356,0.0354,0.0336,0.0341,0.0337,0.0333,0.031,0.0305,0.0323,0.0288,0.0284,0.0278,0.0291,0.0266,0.0265,0.0248,0.0249,0.0249,0.0304,0,0,0,0,0,0,0.0365,0.0366,0.0371,0.0357,0.0354,0.0357,0.0341,0.0337,0.0332,0.033,0.0308,0.0304,0.0288,0.0281,0.0277,0.0288,0.0263,0.0248,0.0248,0.0249,0.0301,0.0306,0.031,0,0,0,0,0,0.0365,0.0376,0.0372,0.0372,0.0363,0.0358,0.0355,0.034,0.0332,0.0335,0.0321,0.0305,0.0282,0.028,0.0275,0.0287,0.0247,0.0248,0.0249,0.03,0.0305,0.031,0,0,0,0,0,0,0.0377,0.0375,0.037,0.0379,0.0372,0.0354,0.0355,0.0345,0.0335,0.0333,0.031,0.0306,0.0303,0.0287,0.0285,0.0283,0.0262,0.0262,0.0302,0.0307,0.0311,0.0326,0.0262,0,0,0,0,0,0.0383,0.0392,0.0383,0.0389,0.0388,0.0372,0.0368,0.0359,0.0348,0.0343,0.0329,0.0313,0.0303,0.0299,0.0284,0.0286,0.0266,0.0289,0.0293,0.0297,0.0306,0.0289,0.0293,0.0252,0.0252,0.0252,0,0,0.0388,0.0389,0.0392,0.0392,0.0385,0.0396,0.0369,0.0367,0.0377,0.0341,0.0348,0.0326,0.0305,0.0306,0.0304,0.0295,0.0297,0.0298,0.0302,0.0309,0.029,0.0294,0.0298,0.0253,0.0252,0.0252,0,0,0.0407,0.0405,0.0419,0.0419,0.0414,0.041,0.0413,0.0401,0.0395,0.0396,0.0374,0.0361,0.0346,0.0336,0.0328,0.0347,0.0317,0.034,0.0379,0.0362,0.0365,0.0368,0.0343,0.0343,0.0346,0.0346,0.0346,0,0.0413,0.0434,0.0421,0.0437,0.0444,0.0423,0.0444,0.0437,0.0425,0.0427,0.0407,0.0386,0.0362,0.037,0.0373,0.0358,0.034,0.0363,0.0368,0.0371,0.0373,0.0346,0.0346,0.0349,0.0348,0.0348,0.0348,0,0.0446,0.0462,0.047,0.0489,0.0494,0.0506,0.0501,0.0503,0.0493,0.0487,0.0484,0.0447,0.0437,0.0424,0.0404,0.041,0.039,0.0374,0.0358,0.038,0.0351,0.0349,0.0353,0.0352,0.0351,0.035,0,0,0.0466,0.049,0.0495,0.0517,0.0525,0.0537,0.0553,0.0567,0.059,0.0561,0.0581,0.0546,0.0521,0.051,0.0479,0.0461,0.0449,0.0428,0.0426,0.0409,0.0408,0.0404,0.0401,0.0436,0.0436,0.0436,0.038,0,0.0498,0.0544,0.0545,0.0594,0.062,0.0611,0.0636,0.0643,0.0639,0.0652,0.061,0.0615,0.0557,0.0554,0.0525,0.0475,0.0449,0.0466,0.0385,0.0382,0.0381,0.0401,0.0452,0.0408,0.0378,0.0378,0.0378,0,0.0535,0.0564,0.0616,0.066,0.0671,0.0698,0.0738,0.0756,0.0762,0.0756,0.0741,0.0709,0.0681,0.0626,0.0544,0.0559,0.0488,0.0439,0.0435,0.0414,0.0376,0.0382,0.0406,0.035,0.0375,0.0375,0.0376,0,0.057,0.0616,0.0664,0.0678,0.0721,0.0746,0.0772,0.0791,0.0822,0.0828,0.085,0.0796,0.0784,0.0691,0.0581,0.0565,0.0488,0.0451,0.0377,0.0375,0.0395,0.0395,0.0362,0.039,0.039,0.039,0.039,0,0.061,0.0649,0.0688,0.0717,0.0784,0.0795,0.0865,0.0876,0.0911,0.097,0.0911,0.0941,0.0802,0.0739,0.0617,0.0501,0.0512,0.0391,0.0367,0.0414,0.0416,0.0348,0.0308,0.0388,0.0389,0.0389,0.0389,0,0.0641,0.0664,0.0724,0.078,0.0803,0.0852,0.093,0.0981,0.1005,0.1079,0.1088,0.1053,0.098,0.0833,0.0689,0.0566,0.0418,0.0396,0.0457,0.0441,0.0313,0.0275,0.0227,0.0191,0.0304,0.0304,0.0304,0,0.066,0.0693,0.0769,0.0813,0.0843,0.0917,0.0975,0.1022,0.1086,0.1159,0.1204,0.116,0.1153,0.0935,0.0723,0.0518,0.0429,0.0406,0.038,0.0324,0.0263,0.0251,0.0223,0.042,0.042,0.0421,0.0421,0,0.0695,0.0721,0.0773,0.0861,0.0932,0.1018,0.1107,0.1173,0.1247,0.1323,0.1406,0.141,0.1226,0.1062,0.0777,0.0618,0.0397,0.041,0.0345,0.035,0.0344,0.0293,0.0426,0.0426,0.0426,0.0425,0.0425,0.0425,0.0721,0.0762,0.083,0.0916,0.1,0.1113,0.1192,0.1304,0.1428,0.1554,0.1555,0.161,0.1378,0.1011,0.0784,0.0449,0.0431,0.0351,0.0307,0.0298,0.028,0.042,0.0398,0.0398,0.0397,0.0397,0.0396,0,0.0751,0.0803,0.088,0.0988,0.1081,0.1124,0.1276,0.1375,0.1536,0.1669,0.1753,0.173,0.1438,0.1105,0.0668,0.0419,0.0316,0.0277,0.0279,0.0248,0.0373,0.0395,0.0383,0.0383,0.0383,0.0383,0.0383,0.0383,0.077,0.0843,0.0884,0.1034,0.1113,0.1247,0.1337,0.15,0.1637,0.183,0.1921,0.1966,0.1793,0.1011,0.0517,0.0369,0.0214,0.0177,0.0075,0.017,0.0175,0.0178,0.0191,0.0136,0.0136,0.0004,0.0003,0.0002]}],[{"header":{"parameterUnit":"m.s-1","parameterCategory":2,"la1":30.2991,"la2":30.254,"lo1":-89.0895,"lo2":-89.0444,"dy":0.0017,"dx":0.0017,"nx":28,"ny":28,"refTime":"2024-06-03T21:00:00:Z","depth":"2","parameterNumber":2,"parameterNumberName":"U-component_of_CURRENTS"},"data":[0,0,0,0,0,0,0,0,0,0,0,0,0,0,0,0,0,0,0,0,0,0,0,0,0,0,0,0,0,0,0,0,0,0,0,0,0,0,0,0,0,0,0,0,0,0,0,0,0,0,0,0,0,0,0,0,0,0,0.2445,0.2445,0,0.2435,0.2435,0.2434,0.2415,0.2415,0.2415,0.2414,0.2404,0.2404,0.2404,0,0,0,0,0,0,0,0,0,0,0,0,0,0.246,0.246,0.2445,0.2445,0.2445,0.2435,0.2435,0.2434,0.2415,0.2415,0.2414,0.2414,0.2404,0.2404,0.2404,0,0,0,0,0,0,0,0,0,0,0,0,0,0.245,0.246,0.2445,0.2436,0.2435,0.2435,0.2435,0.2434,0.2415,0.2415,0.2414,0.2414,0.2404,0.2404,0.2404,0.2407,0,0,0.2403,0.2403,0,0,0,0,0,0,0,0,0.245,0.2449,0.2437,0.2437,0.2436,0.2428,0.2436,0.2426,0.2415,0.242,0.2414,0.2414,0.2414,0.2413,0.2408,0.2407,0.2406,0.2403,0.2403,0.2403,0.2403,0,0,0,0,0,0,0,0.2451,0.2449,0.2438,0.2438,0.2437,0.2437,0.2435,0.2434,0.2417,0.242,0.2419,0.2422,0.2413,0.2408,0.2408,0.2406,0.2403,0.2403,0.2403,0.2403,0.2456,0.2457,0,0,0,0,0,0,0.2457,0.245,0.2439,0.2438,0.2446,0.2437,0.2435,0.2429,0.2416,0.2415,0.2422,0.2421,0.2409,0.2408,0.2407,0.2449,0.2403,0.2403,0.2403,0.2454,0.2456,0.2458,0,0,0,0,0,0,0.2457,0.2456,0.2439,0.2447,0.2445,0.2437,0.2431,0.2429,0.2431,0.2419,0.2417,0.2427,0.2409,0.2408,0.242,0.2447,0.2403,0.2403,0.2453,0.2455,0.2457,0.2507,0,0,0,0,0,0,0.2457,0.2455,0.2457,0.2447,0.2445,0.2444,0.2431,0.2429,0.2434,0.2432,0.2423,0.2421,0.2408,0.2421,0.242,0.2446,0.2403,0.2451,0.2454,0.2456,0.2503,0.251,0.2517,0,0,0,0,0,0.2458,0.2458,0.2456,0.2456,0.2445,0.2445,0.2444,0.2436,0.2435,0.2437,0.2437,0.2422,0.2439,0.2422,0.2421,0.2446,0.2449,0.2453,0.2456,0.25,0.2509,0.2516,0,0,0,0,0,0,0.2464,0.2456,0.2454,0.2451,0.2453,0.2443,0.2446,0.2444,0.2445,0.2447,0.2435,0.2433,0.2457,0.2447,0.2429,0.2473,0.2444,0.2448,0.2478,0.2486,0.2493,0.249,0.2402,0,0,0,0,0,0.2467,0.2464,0.2461,0.246,0.2462,0.2457,0.2458,0.2455,0.2455,0.2455,0.245,0.2455,0.247,0.2473,0.2478,0.2497,0.2502,0.2516,0.2523,0.2528,0.2527,0.2576,0.2587,0.2469,0.2469,0.2469,0,0,0.2468,0.2466,0.2463,0.2462,0.246,0.2468,0.2456,0.2462,0.2472,0.2455,0.2468,0.2476,0.2481,0.2505,0.2515,0.2499,0.2565,0.2533,0.2537,0.2533,0.2581,0.2592,0.2602,0.2472,0.2471,0.2471,0,0,0.2473,0.2469,0.247,0.2475,0.2481,0.248,0.2486,0.2485,0.2488,0.2507,0.2504,0.2528,0.2539,0.255,0.2559,0.2606,0.26,0.2613,0.2642,0.269,0.2699,0.2708,0.2726,0.2736,0.2615,0.2615,0.2615,0,0.2478,0.2471,0.2472,0.2481,0.2485,0.249,0.2496,0.2506,0.2511,0.2525,0.2519,0.2564,0.2563,0.2606,0.2622,0.2621,0.2638,0.2608,0.2698,0.2707,0.2715,0.2732,0.2742,0.2618,0.2617,0.2617,0.2617,0,0.248,0.2482,0.2485,0.2495,0.2506,0.2508,0.2526,0.2543,0.2554,0.2568,0.2613,0.2621,0.265,0.266,0.2653,0.2714,0.2704,0.2702,0.2675,0.273,0.2744,0.2754,0.2622,0.2621,0.262,0.2619,0,0,0.2465,0.248,0.2482,0.2488,0.2507,0.2515,0.2548,0.2575,0.2607,0.263,0.2673,0.2704,0.2718,0.2728,0.2732,0.2767,0.2835,0.276,0.2761,0.2773,0.2929,0.2854,0.2857,0.2856,0.2858,0.286,0.2914,0,0.2461,0.2472,0.2483,0.25,0.2505,0.253,0.2562,0.2599,0.2633,0.2681,0.2716,0.2759,0.2743,0.2767,0.2803,0.2831,0.2864,0.2819,0.2877,0.2878,0.2802,0.2867,0.2614,0.2636,0.2923,0.2925,0.2926,0,0.2449,0.246,0.2469,0.25,0.2507,0.2525,0.2579,0.261,0.2688,0.2721,0.2779,0.281,0.287,0.285,0.2927,0.2903,0.2919,0.2933,0.2936,0.2853,0.2822,0.263,0.2643,0.2942,0.2941,0.294,0.2939,0,0.2421,0.2446,0.245,0.2458,0.2502,0.252,0.2549,0.2621,0.2654,0.2752,0.2796,0.2873,0.2914,0.2962,0.2991,0.2973,0.307,0.305,0.2993,0.2987,0.2775,0.2746,0.3107,0.3107,0.3107,0.3107,0.3106,0,0.2397,0.2401,0.2438,0.2439,0.2462,0.2507,0.2546,0.2596,0.2676,0.2729,0.2811,0.2865,0.2948,0.3009,0.3026,0.3041,0.3103,0.3007,0.3006,0.2784,0.2757,0.3021,0.301,0.3109,0.3108,0.3108,0.3107,0,0.2356,0.2377,0.2384,0.2428,0.2442,0.2461,0.252,0.2555,0.2644,0.2718,0.2754,0.2875,0.2957,0.302,0.3102,0.3073,0.3103,0.3089,0.2809,0.2774,0.2975,0.2966,0.3032,0.303,0.3028,0.3027,0.3025,0,0.2331,0.2331,0.2363,0.2367,0.2379,0.2416,0.2438,0.2524,0.2566,0.2714,0.2746,0.2863,0.2919,0.3006,0.2997,0.3016,0.3082,0.2776,0.2692,0.298,0.2972,0.2966,0.296,0.2428,0.2422,0.2417,0.2413,0,0.2286,0.2297,0.2305,0.2312,0.2325,0.2343,0.2388,0.2415,0.2531,0.259,0.2682,0.2742,0.2836,0.2742,0.2771,0.2747,0.2753,0.2676,0.3068,0.2489,0.2415,0.2407,0.2419,0.2369,0.2374,0.2377,0.2379,0.2381,0.225,0.224,0.2249,0.2244,0.2258,0.2258,0.2241,0.2301,0.2341,0.2403,0.2537,0.2534,0.2562,0.2481,0.2408,0.2349,0.2544,0.2406,0.2418,0.2437,0.2361,0.2289,0.2203,0.2206,0.2209,0.2212,0.2214,0,0.2193,0.2185,0.218,0.216,0.2128,0.2171,0.2189,0.2151,0.2145,0.2233,0.2274,0.2099,0.2025,0.2057,0.1898,0.1894,0.186,0.1806,0.1728,0.1773,0.1813,0.1702,0.1372,0.1369,0.1366,0.1364,0,0,0.2165,0.2128,0.2112,0.2031,0.2015,0.1946,0.1931,0.1895,0.1915,0.1871,0.1843,0.1979,0.2021,0.1688,0.1629,0.1471,0.1616,0.1412,0.2091,0.2047,0.2084,0.2164,0.2046,0,0,0,0,0]},{"header":{"parameterUnit":"m.s-1","parameterCategory":2,"la1":30.2991,"la2":30.254,"lo1":-89.0895,"lo2":-89.0444,"dy":0.0017,"dx":0.0017,"nx":28,"ny":28,"refTime":"2024-06-03T21:00:00:Z","depth":"2","parameterNumber":3,"parameterNumberName":"V-component_of_CURRENTS"},"data":[0,0,0,0,0,0,0,0,0,0,0,0,0,0,0,0,0,0,0,0,0,0,0,0,0,0,0,0,0,0,0,0,0,0,0,0,0,0,0,0,0,0,0,0,0,0,0,0,0,0,0,0,0,0,0,0,0,0,0.0263,0.0262,0,0.0231,0.0231,0.023,0.0211,0.0211,0.0211,0.0211,0.0173,0.0172,0.0171,0,0,0,0,0,0,0,0,0,0,0,0,0,0.0261,0.0262,0.0263,0.0262,0.0262,0.0231,0.0231,0.023,0.0211,0.0211,0.0211,0.0211,0.0173,0.0172,0.0171,0,0,0,0,0,0,0,0,0,0,0,0,0,0.0249,0.0262,0.0263,0.0249,0.0248,0.0231,0.0231,0.023,0.0211,0.0211,0.0211,0.0211,0.0174,0.0172,0.0171,0.0163,0,0,0.0166,0.0166,0,0,0,0,0,0,0,0,0.025,0.0249,0.0251,0.025,0.0248,0.0226,0.0217,0.0208,0.0211,0.0224,0.0211,0.0211,0.019,0.0188,0.0181,0.0161,0.016,0.0166,0.0165,0.0165,0.0164,0,0,0,0,0,0,0,0.025,0.025,0.0249,0.0251,0.0249,0.023,0.0228,0.0215,0.0207,0.0223,0.0222,0.0219,0.0189,0.0182,0.018,0.0159,0.0166,0.0165,0.0164,0.0164,0.0143,0.0144,0,0,0,0,0,0,0.0258,0.0251,0.025,0.0249,0.025,0.023,0.0228,0.0232,0.0208,0.0204,0.022,0.0219,0.0185,0.0182,0.0179,0.0189,0.0165,0.0163,0.0163,0.0143,0.0143,0.0144,0,0,0,0,0,0,0.0258,0.0259,0.0252,0.0249,0.0247,0.023,0.0235,0.0232,0.0229,0.0205,0.0201,0.0221,0.0185,0.0181,0.0175,0.0187,0.0163,0.0161,0.0142,0.0143,0.0143,0.0197,0,0,0,0,0,0,0.0259,0.0259,0.0265,0.025,0.0247,0.025,0.0235,0.0231,0.0228,0.0226,0.0205,0.0201,0.0184,0.0178,0.0174,0.0184,0.016,0.0142,0.0143,0.0143,0.0194,0.0199,0.0203,0,0,0,0,0,0.0259,0.0269,0.0266,0.0265,0.0256,0.025,0.0247,0.0234,0.0228,0.023,0.0217,0.0202,0.0179,0.0177,0.0172,0.0183,0.0142,0.0143,0.0143,0.0193,0.0198,0.0202,0,0,0,0,0,0,0.027,0.0268,0.0264,0.0272,0.0265,0.0247,0.0248,0.0239,0.023,0.0229,0.0207,0.0202,0.02,0.0183,0.0182,0.0178,0.0157,0.0157,0.0196,0.0201,0.0205,0.022,0.0159,0,0,0,0,0,0.0276,0.0284,0.0275,0.0282,0.0281,0.0265,0.0261,0.0253,0.0242,0.0238,0.0224,0.0209,0.0198,0.0194,0.0179,0.0179,0.0159,0.0182,0.0186,0.019,0.0199,0.018,0.0183,0.0146,0.0146,0.0146,0,0,0.0281,0.0281,0.0285,0.0285,0.0277,0.0287,0.0263,0.0261,0.027,0.0236,0.0243,0.0222,0.02,0.02,0.0198,0.019,0.0188,0.0191,0.0194,0.0201,0.0181,0.0184,0.0188,0.0147,0.0147,0.0146,0,0,0.0298,0.0297,0.0311,0.031,0.0306,0.0302,0.0305,0.0293,0.0288,0.0289,0.0267,0.0256,0.024,0.0228,0.022,0.0238,0.0209,0.0231,0.0268,0.025,0.0253,0.0255,0.0231,0.023,0.0237,0.0237,0.0237,0,0.0304,0.0324,0.0312,0.0327,0.0333,0.0314,0.0333,0.0327,0.0315,0.0317,0.0299,0.0278,0.0254,0.026,0.0264,0.0248,0.0231,0.0253,0.0256,0.0258,0.026,0.0234,0.0233,0.0239,0.0239,0.0239,0.0239,0,0.0334,0.035,0.0358,0.0376,0.038,0.0392,0.0386,0.0388,0.038,0.0374,0.037,0.0335,0.0325,0.0312,0.0293,0.0297,0.0278,0.0262,0.0246,0.0267,0.0238,0.0236,0.0243,0.0242,0.0241,0.0241,0,0,0.0354,0.0376,0.0381,0.0402,0.0409,0.042,0.0435,0.0448,0.0468,0.0441,0.046,0.0426,0.0404,0.0393,0.0363,0.0345,0.0332,0.0313,0.0311,0.0294,0.0289,0.0284,0.0281,0.0318,0.0318,0.0318,0.0262,0,0.0384,0.0427,0.0428,0.0473,0.0497,0.0489,0.0512,0.0518,0.0514,0.0526,0.0485,0.049,0.0437,0.0436,0.0407,0.0356,0.0331,0.0349,0.0267,0.0265,0.0262,0.028,0.0295,0.0248,0.026,0.026,0.026,0,0.0419,0.0445,0.0494,0.0535,0.0545,0.0571,0.0608,0.0624,0.0629,0.0623,0.0609,0.0579,0.0551,0.0502,0.042,0.0435,0.0368,0.0319,0.0315,0.0294,0.0257,0.023,0.0244,0.0256,0.0256,0.0257,0.0257,0,0.0452,0.0495,0.0541,0.0553,0.0593,0.0617,0.0642,0.0659,0.0688,0.0692,0.0713,0.066,0.0649,0.0559,0.0453,0.0439,0.036,0.0326,0.0254,0.0252,0.0241,0.0238,0.0265,0.0265,0.0265,0.0265,0.0265,0,0.0491,0.0528,0.0564,0.0592,0.0655,0.0665,0.0731,0.0742,0.0773,0.0828,0.0772,0.0797,0.0665,0.0603,0.0486,0.0373,0.0382,0.0267,0.0243,0.0259,0.0259,0.0246,0.0245,0.0263,0.0263,0.0264,0.0264,0,0.0521,0.0543,0.06,0.0652,0.0674,0.0722,0.0795,0.0843,0.0865,0.0933,0.0942,0.0903,0.0829,0.0689,0.0548,0.0431,0.0313,0.0266,0.0291,0.0272,0.0202,0.0204,0.0177,0.0177,0.0176,0.0176,0.0176,0,0.054,0.0572,0.0644,0.0687,0.0715,0.0787,0.0841,0.0884,0.0944,0.1006,0.1046,0.1,0.0985,0.0771,0.0568,0.0371,0.0328,0.0237,0.0209,0.0217,0.0196,0.0199,0.0201,0.0207,0.0207,0.0207,0.0207,0,0.0575,0.06,0.0649,0.0734,0.0802,0.0882,0.0967,0.1027,0.1094,0.116,0.1229,0.1224,0.1041,0.0853,0.0581,0.0436,0.0269,0.023,0.0239,0.0233,0.0242,0.0222,0.0224,0.0206,0.0206,0.0206,0.0207,0.0207,0.0601,0.064,0.0704,0.0787,0.0867,0.0972,0.1045,0.1146,0.1257,0.1356,0.1352,0.1348,0.1128,0.0791,0.0547,0.028,0.0298,0.018,0.0181,0.0182,0.0202,0.0211,0.0172,0.0172,0.0171,0.0171,0.0171,0,0.0629,0.0679,0.0753,0.0855,0.0942,0.0985,0.1124,0.1205,0.1346,0.1432,0.1492,0.128,0.108,0.0814,0.0443,0.0221,0.0188,0.012,0.0134,0.0137,0.0139,0.0157,0.0115,0.0114,0.0113,0.0112,0,0,0.0646,0.0715,0.0754,0.0895,0.0972,0.1096,0.1179,0.1309,0.1402,0.1481,0.148,0.1463,0.1165,0.0873,0.0571,0.0351,0.0286,0.0289,0.0362,0.042,0.0424,0.0206,0.0241,0,0,0,0,0]}],[{"header":{"parameterUnit":"m.s-1","parameterCategory":2,"la1":30.2991,"la2":30.254,"lo1":-89.0895,"lo2":-89.0444,"dy":0.0017,"dx":0.0017,"nx":28,"ny":28,"refTime":"2024-06-03T21:00:00:Z","depth":"4","parameterNumber":2,"parameterNumberName":"U-component_of_CURRENTS"},"data":[0,0,0,0,0,0,0,0,0,0,0,0,0,0,0,0,0,0,0,0,0,0,0,0,0,0,0,0,0,0,0,0,0,0,0,0,0,0,0,0,0,0,0,0,0,0,0,0,0,0,0,0,0,0,0,0,0,0,0.1695,0.1695,0,0.172,0.172,0.172,0.1751,0.1752,0.1753,0.1754,0.1786,0.1786,0.1786,0,0,0,0,0,0,0,0,0,0,0,0,0,0.1652,0.1652,0.1695,0.1695,0.1696,0.172,0.172,0.172,0.1751,0.1752,0.1753,0.1754,0.1786,0.1786,0.1786,0,0,0,0,0,0,0,0,0,0,0,0,0,0.167,0.1652,0.1695,0.1716,0.1719,0.172,0.172,0.172,0.1751,0.1752,0.1753,0.1754,0.1786,0.1786,0.1786,0.1764,0,0,0.1787,0.1787,0,0,0,0,0,0,0,0,0.1669,0.1671,0.1713,0.1715,0.1718,0.1736,0.1716,0.1736,0.1751,0.1736,0.1754,0.1755,0.1771,0.1772,0.177,0.1766,0.1767,0.1787,0.1787,0.1787,0.1787,0,0,0,0,0,0,0,0.1668,0.167,0.1702,0.1713,0.1716,0.1717,0.1721,0.172,0.1744,0.1737,0.174,0.1747,0.1772,0.177,0.1771,0.1768,0.1787,0.1787,0.1787,0.1787,0.1853,0.1854,0,0,0,0,0,0,0.167,0.1669,0.1701,0.1703,0.1699,0.1718,0.1722,0.1727,0.1744,0.1749,0.1746,0.1749,0.1769,0.1771,0.1773,0.1842,0.1787,0.1787,0.1787,0.1851,0.1853,0.1855,0,0,0,0,0,0,0.1669,0.1673,0.17,0.1689,0.1693,0.1718,0.1723,0.1727,0.176,0.1752,0.1756,0.178,0.177,0.1772,0.1805,0.184,0.1787,0.1787,0.1849,0.1852,0.1854,0.1921,0,0,0,0,0,0,0.1668,0.1672,0.1693,0.1689,0.1694,0.1721,0.1722,0.1726,0.1762,0.1766,0.1781,0.1783,0.1771,0.1805,0.1806,0.184,0.1788,0.1847,0.185,0.1853,0.1917,0.1926,0.1933,0,0,0,0,0,0.1666,0.1683,0.1694,0.1699,0.1716,0.1723,0.1725,0.1744,0.1763,0.1779,0.1797,0.1785,0.1825,0.1807,0.1807,0.1842,0.1846,0.1849,0.1853,0.1914,0.1924,0.1933,0,0,0,0,0,0,0.1675,0.1687,0.17,0.1721,0.1734,0.173,0.1753,0.1764,0.179,0.1807,0.18,0.1803,0.1846,0.1835,0.1815,0.1871,0.1835,0.1839,0.1882,0.1891,0.1899,0.1895,0.1788,0,0,0,0,0,0.1686,0.1707,0.1713,0.1735,0.1745,0.1757,0.177,0.1782,0.1796,0.181,0.1822,0.1839,0.1854,0.1867,0.1874,0.1901,0.1895,0.1926,0.1934,0.194,0.1938,0.197,0.198,0.1867,0.1867,0.1867,0,0,0.1697,0.1708,0.1721,0.174,0.1754,0.1768,0.1768,0.1797,0.1818,0.1808,0.1855,0.1868,0.1868,0.1902,0.192,0.1901,0.1972,0.1945,0.1951,0.1945,0.1975,0.1986,0.1995,0.1869,0.1869,0.1868,0,0,0.1713,0.1739,0.1758,0.1772,0.18,0.1802,0.182,0.1837,0.186,0.1898,0.1901,0.1936,0.1959,0.1964,0.1969,0.2025,0.2014,0.2038,0.2075,0.2107,0.2116,0.2124,0.2138,0.2146,0.2042,0.2042,0.2043,0,0.1731,0.1747,0.1765,0.1785,0.18,0.1823,0.184,0.1862,0.1892,0.1915,0.1927,0.1982,0.1985,0.202,0.2044,0.2043,0.2056,0.2038,0.2117,0.2125,0.2132,0.2144,0.2152,0.2046,0.2046,0.2045,0.2045,0,0.1744,0.1773,0.1787,0.1817,0.1839,0.1859,0.1885,0.1921,0.1958,0.1977,0.2038,0.205,0.2082,0.2095,0.2088,0.2144,0.2136,0.2124,0.2091,0.2148,0.2156,0.2164,0.2051,0.205,0.2049,0.2048,0,0,0.1733,0.1785,0.1794,0.1816,0.1857,0.1871,0.192,0.1957,0.1999,0.2046,0.2097,0.2135,0.2158,0.2164,0.2169,0.2195,0.226,0.219,0.219,0.2199,0.233,0.217,0.2163,0.2274,0.2275,0.2277,0.2317,0,0.1737,0.1775,0.1801,0.1844,0.1862,0.1904,0.1944,0.1992,0.2038,0.2096,0.2133,0.2184,0.2179,0.2212,0.2241,0.2257,0.2284,0.225,0.2276,0.2276,0.2124,0.2167,0.2282,0.2323,0.2325,0.2326,0.2327,0,0.1729,0.1758,0.1799,0.1857,0.1871,0.1907,0.1979,0.2018,0.2099,0.2143,0.2205,0.2237,0.2294,0.2282,0.2342,0.2327,0.2338,0.2342,0.2344,0.2171,0.2129,0.2253,0.2341,0.234,0.2339,0.2338,0.2337,0,0.1691,0.1752,0.1787,0.1806,0.1877,0.1918,0.1962,0.2041,0.208,0.2182,0.2226,0.2297,0.2343,0.2376,0.2396,0.2386,0.2448,0.243,0.2292,0.2281,0.2383,0.2374,0.247,0.247,0.247,0.247,0.247,0,0.1658,0.1691,0.1782,0.1799,0.1851,0.1913,0.1977,0.2035,0.2121,0.2165,0.2253,0.2288,0.2374,0.2415,0.2423,0.2375,0.2475,0.2296,0.228,0.2411,0.2405,0.2389,0.2379,0.2471,0.2471,0.2471,0.247,0,0.1601,0.166,0.1707,0.1799,0.1833,0.1875,0.1972,0.2009,0.2109,0.2171,0.2208,0.2307,0.2354,0.2408,0.246,0.2386,0.2371,0.2332,0.2471,0.2463,0.2176,0.217,0.217,0.2164,0.216,0.2156,0.2153,0,0.1568,0.1591,0.1698,0.1728,0.1775,0.1849,0.1888,0.1993,0.2027,0.2154,0.2165,0.2258,0.2307,0.2245,0.2321,0.2316,0.2289,0.2261,0.2207,0.2161,0.2146,0.2147,0.2146,0.2146,0.2145,0.2143,0.2142,0,0.1505,0.1564,0.1604,0.1667,0.1721,0.1764,0.1833,0.1842,0.1954,0.2063,0.2063,0.2075,0.2117,0.2141,0.2155,0.215,0.2265,0.2213,0.2222,0.2171,0.2132,0.2122,0.2127,0.2126,0.2129,0.213,0.2131,0,0.1465,0.1479,0.1545,0.1581,0.1645,0.1653,0.1702,0.1728,0.1771,0.1903,0.1902,0.1995,0.2097,0.2055,0.2071,0.205,0.2011,0.1931,0.1953,0.1971,0.1886,0.1806,0.1684,0,0,0,0,0,0.1413,0.1412,0.1446,0.1472,0.1529,0.1564,0.1648,0.1698,0.1806,0.1753,0.1818,0.1845,0.1845,0.1896,0.1833,0.1991,0.2032,0.1909,0.1955,0.2039,0.2058,0.1973,0,0,0,0,0,0,0.1377,0.1411,0.141,0.1373,0.137,0.1413,0.1463,0.1538,0.1513,0.1631,0.1643,0.1724,0.1762,0.1861,0.1796,0.1811,0.1797,0.1971,0.1965,0.2029,0.2046,0.206,0.198,0,0,0,0,0]},{"header":{"parameterUnit":"m.s-1","parameterCategory":2,"la1":30.2991,"la2":30.254,"lo1":-89.0895,"lo2":-89.0444,"dy":0.0017,"dx":0.0017,"nx":28,"ny":28,"refTime":"2024-06-03T21:00:00:Z","depth":"4","parameterNumber":3,"parameterNumberName":"V-component_of_CURRENTS"},"data":[0,0,0,0,0,0,0,0,0,0,0,0,0,0,0,0,0,0,0,0,0,0,0,0,0,0,0,0,0,0,0,0,0,0,0,0,0,0,0,0,0,0,0,0,0,0,0,0,0,0,0,0,0,0,0,0,0,0,0.0157,0.0157,0,0.0138,0.0138,0.0138,0.0129,0.0129,0.0129,0.0129,0.0104,0.0103,0.0102,0,0,0,0,0,0,0,0,0,0,0,0,0,0.0154,0.0154,0.0158,0.0157,0.0157,0.0138,0.0138,0.0138,0.0129,0.0129,0.0129,0.0129,0.0104,0.0103,0.0102,0,0,0,0,0,0,0,0,0,0,0,0,0,0.0147,0.0154,0.0158,0.0151,0.015,0.0138,0.0138,0.0137,0.0129,0.0129,0.0129,0.0129,0.0104,0.0103,0.0102,0.0094,0,0,0.0099,0.0099,0,0,0,0,0,0,0,0,0.0147,0.0147,0.0152,0.0151,0.015,0.0136,0.0127,0.0123,0.0129,0.0136,0.0129,0.0129,0.0114,0.0113,0.0108,0.0093,0.0092,0.0099,0.0098,0.0098,0.0098,0,0,0,0,0,0,0,0.0148,0.0147,0.0149,0.0152,0.0151,0.0137,0.0137,0.0126,0.0125,0.0136,0.0135,0.0133,0.0114,0.0109,0.0107,0.0091,0.0099,0.0098,0.0097,0.0097,0.0084,0.0084,0,0,0,0,0,0,0.0153,0.0148,0.015,0.0149,0.0149,0.0137,0.0137,0.014,0.0125,0.0123,0.0133,0.0133,0.0111,0.0109,0.0107,0.0118,0.0098,0.0097,0.0096,0.0084,0.0084,0.0084,0,0,0,0,0,0,0.0153,0.0153,0.0151,0.0148,0.0147,0.0138,0.0142,0.014,0.0141,0.0123,0.0121,0.0137,0.0111,0.0108,0.0106,0.0116,0.0096,0.0095,0.0083,0.0084,0.0084,0.0127,0,0,0,0,0,0,0.0153,0.0153,0.0159,0.0149,0.0147,0.0151,0.0142,0.0139,0.014,0.0139,0.0125,0.0123,0.0111,0.0108,0.0105,0.0115,0.0095,0.0083,0.0084,0.0084,0.0125,0.0129,0.0132,0,0,0,0,0,0.0153,0.0161,0.016,0.016,0.0155,0.0151,0.0149,0.0142,0.014,0.0143,0.0135,0.0124,0.0109,0.0107,0.0104,0.0113,0.0083,0.0083,0.0084,0.0124,0.0128,0.0132,0,0,0,0,0,0,0.0161,0.016,0.0159,0.0166,0.0162,0.015,0.0152,0.0147,0.0143,0.0144,0.0128,0.0125,0.0126,0.0113,0.0111,0.0111,0.0094,0.0094,0.0125,0.0129,0.0133,0.0144,0.0094,0,0,0,0,0,0.0166,0.0173,0.0168,0.0174,0.0174,0.0164,0.0162,0.0158,0.0152,0.015,0.0142,0.0132,0.0124,0.0123,0.0112,0.0113,0.0096,0.0116,0.012,0.0123,0.0129,0.0111,0.0113,0.0087,0.0087,0.0087,0,0,0.017,0.0171,0.0175,0.0176,0.0173,0.0182,0.0164,0.0164,0.0173,0.0148,0.0158,0.0142,0.0126,0.0128,0.0127,0.0121,0.012,0.0123,0.0126,0.0131,0.0112,0.0114,0.0117,0.0087,0.0087,0.0087,0,0,0.0182,0.0184,0.0196,0.0197,0.0196,0.0194,0.0197,0.0191,0.0189,0.0193,0.0178,0.017,0.016,0.0152,0.0146,0.0161,0.0137,0.0157,0.0187,0.0169,0.0171,0.0173,0.0152,0.0152,0.0162,0.0162,0.0162,0,0.0188,0.0204,0.0197,0.0209,0.0216,0.0204,0.022,0.0217,0.0211,0.0215,0.0202,0.019,0.0172,0.0177,0.0181,0.0169,0.0155,0.0174,0.0174,0.0175,0.0176,0.0155,0.0154,0.0164,0.0164,0.0163,0.0163,0,0.0209,0.0224,0.0231,0.0248,0.0253,0.0263,0.0262,0.0267,0.0263,0.026,0.0261,0.0235,0.023,0.022,0.0205,0.0208,0.0193,0.0179,0.0166,0.0182,0.0158,0.0156,0.0167,0.0166,0.0165,0.0165,0,0,0.0221,0.0243,0.0247,0.0266,0.0276,0.0286,0.03,0.0313,0.0332,0.0315,0.0331,0.0307,0.0293,0.0284,0.0262,0.0245,0.0233,0.022,0.0218,0.0203,0.0193,0.0178,0.0174,0.022,0.0219,0.0219,0.0173,0,0.0243,0.0278,0.0282,0.0321,0.0341,0.034,0.036,0.0368,0.0369,0.0381,0.035,0.0358,0.0318,0.032,0.0295,0.0251,0.023,0.0247,0.0176,0.0174,0.0162,0.0173,0.0219,0.0171,0.0171,0.017,0.017,0,0.0267,0.0289,0.033,0.0368,0.0378,0.0402,0.0438,0.0453,0.0461,0.0459,0.0451,0.0429,0.0407,0.0369,0.03,0.0314,0.026,0.0218,0.0215,0.0187,0.0157,0.0151,0.0166,0.0167,0.0167,0.0167,0.0167,0,0.0287,0.0326,0.0364,0.0377,0.0414,0.0439,0.0464,0.0483,0.0508,0.0516,0.0533,0.0492,0.0484,0.041,0.0321,0.0314,0.0239,0.0216,0.0149,0.0147,0.0155,0.0154,0.0165,0.0165,0.0165,0.0166,0.0166,0,0.0311,0.0343,0.0383,0.0406,0.0462,0.0476,0.0536,0.0549,0.0578,0.062,0.0583,0.0596,0.0495,0.0438,0.0345,0.0244,0.0255,0.0158,0.0137,0.0173,0.0175,0.0153,0.0152,0.0164,0.0164,0.0165,0.0165,0,0.0325,0.0349,0.04,0.0452,0.0475,0.0518,0.059,0.0629,0.0653,0.0704,0.0712,0.0678,0.0608,0.0497,0.0377,0.0285,0.0184,0.0143,0.0195,0.0177,0.0096,0.0098,0.0066,0.0065,0.0065,0.0064,0.0063,0,0.0334,0.0362,0.0434,0.0473,0.0503,0.0571,0.0619,0.0663,0.0708,0.0754,0.0779,0.0736,0.0695,0.0519,0.0391,0.0213,0.0179,0.0116,0.0099,0.0105,0.0087,0.009,0.0093,0.0062,0.0062,0.0062,0.0062,0,0.0351,0.038,0.0424,0.0501,0.0564,0.0636,0.0709,0.0746,0.0801,0.0826,0.0837,0.0755,0.0675,0.0526,0.039,0.0258,0.0151,0.0108,0.0108,0.0091,0.01,0.0083,0.0087,0.0059,0.006,0.006,0.006,0,0.0366,0.0397,0.0456,0.0526,0.0605,0.0681,0.0719,0.0777,0.0822,0.0868,0.0868,0.0789,0.0742,0.0551,0.0426,0.0295,0.0251,0.0187,0.0182,0.0183,0.0223,0.0251,0.0245,0,0,0,0,0,0.0375,0.0412,0.0475,0.0554,0.0633,0.068,0.0771,0.0804,0.0858,0.087,0.0873,0.08,0.063,0.0559,0.0427,0.0393,0.0216,0.0229,0.0136,0.0046,0.0049,0.0073,0,0,0,0,0,0,0.0381,0.0438,0.047,0.0566,0.062,0.071,0.0769,0.0806,0.0814,0.0847,0.0763,0.0741,0.0576,0.0704,0.0416,0.0379,0.0294,0.0159,0.0155,0.0044,0.0047,0.0049,0.0076,0,0,0,0,0]}]]